Torna al catalogo

THOR ABLESTAR DEB

AttivoLEO
NORAD 48822·DEBRIS·🇺🇸 United States

Lanciato Jun 29, 1961 da Cape Canaveral Space Force Station

Loading…

Prossimi Passaggi (prossime 24 ore)

TLE

AggiornatoSource: Space-Track

Epoca: Sep 13, 2026, 23:28 UTC

1 48822U 61015NA  26256.97798891  .00000008  00000-0  50501-4 0  9999
2 48822  66.7165 141.5985 0120699 324.4413  34.8671 14.06065080657230

Traccia THOR ABLESTAR DEB in tempo reale con AllMySat

Download on the App Store